• MPC Preparation (Info)

  • MPEC 2023-G28 : 2023 GF

    The following Minor Planet Electronic Circular may be linked-to from your own Web pages, but must not otherwise be redistributed electronically.

    A form allowing access to any MPEC is at the bottom of this page.


    Read MPEC 2023-G27 Read MPEC 2023-G29


    M.P.E.C. 2023-G28                                 Issued 2023 April 3, 20:45 UT
    
         The Minor Planet Electronic Circulars contain information on unusual
             minor planets, routine data on comets and natural satellites,
             and occasional editorial announcements.  They are published
        on behalf of Division F of the International Astronomical Union by the
              Minor Planet Center, Smithsonian Astrophysical Observatory,
                              Cambridge, MA 02138, U.S.A.
    			  
                 Prepared using the Tamkin Foundation Computer Network
    
                                  MPC@CFA.HARVARD.EDU
                URL https://www.minorplanetcenter.net/    ISSN 1523-6714
    
                                     2023 GF                                 
    
    
    Observations:
         K23G00F*1C2023 04 02.36710914 52 39.360-20 08 22.20         17.27GVEG028703
         K23G00F 1C2023 04 02.37240514 52 23.516-20 06 21.60         17.37GVEG028703
         K23G00F 1C2023 04 02.37770314 52 07.630-20 04 19.63         17.50GVEG028703
         K23G00F 1C2023 04 02.38299814 51 51.768-20 02 18.20         17.22GVEG028703
         K23G00F mC2023 04 02.48199014 46 58.429-19 23 51.86         17.18GVEG028I52
         K23G00F mC2023 04 02.48216014 46 57.932-19 23 47.87         17.22GVEG028I52
         K23G00F mC2023 04 02.48233114 46 57.443-19 23 43.87         17.24GVEG028I52
         K23G00F mC2023 04 02.48250014 46 56.939-19 23 39.84         17.26GVEG028I52
         K23G00F KC2023 04 02.96605514 25 46.262-16 17 44.23         17.6 GVEG028J95
         K23G00F KC2023 04 02.97225714 25 29.856-16 15 23.22         17.1 GVEG028J95
         K23G00F KC2023 04 02.97646014 25 18.701-16 13 46.74         17.4 GVEG028J95
         K23G00F KC2023 04 02.97977914 25 09.914-16 12 31.46         17.2 GVEG028J95
         K23G00F KC2023 04 03.13319 14 18 31.22 -15 12 24.6          16.9 GVEG028J22
         K23G00F KC2023 04 03.13711 14 18 21.01 -15 10 54.6          16.6 GVEG028J22
         K23G00F KC2023 04 03.14102 14 18 10.66 -15 09 25.9          17.1 GVEG028J22
         K23G00F KC2023 04 03.34190 14 10 05.19 -13 54 06.8          17.2 VqEG028734
         K23G00F KC2023 04 03.34307 14 10 02.23 -13 53 40.0          17.2 VqEG028734
         K23G00F KC2023 04 03.34542 14 09 56.35 -13 52 47.3          17.4 VqEG028734
         K23G00F KC2023 04 03.34645 14 09 53.79 -13 52 24.3          17.4 VqEG028734
         K23G00F KC2023 04 03.59034 14 00 37.54 -12 14 41.0          17.3 VqEG028E23
         K23G00F KC2023 04 03.59102514 00 40.94 -12 21 15.1          17.2 GVEG028900
         K23G00F KC2023 04 03.59589 14 00 24.28 -12 12 39.4          17.6 VqEG028E23
         K23G00F KC2023 04 03.59862214 00 22.91 -12 18 30.2          17.0 GVEG028900
         K23G00F KC2023 04 03.60145 14 00 11.01 -12 10 38.0          17.4 VqEG028E23
         K23G00F KC2023 04 03.60621914 00 04.88 -12 15 44.5          17.0 GVEG028900
         K23G00F KC2023 04 03.69397313 56 37.73 -11 43 56.4          17.3 GVEG028900
         K23G00F KC2023 04 03.70157513 56 19.98 -11 41 11.0          17.5 GVEG028900
         K23G00F KC2023 04 03.70917713 56 02.25 -11 38 25.5          17.7 GVEG028900
         K23G00F 1C2023 04 03.80505 13 52 52.03 -11 04 28.7          17.7 GVEG028C40
         K23G00F 1C2023 04 03.80793 13 52 45.64 -11 03 27.9          17.7 GVEG028C40
         K23G00F 1C2023 04 03.81080 13 52 39.19 -11 02 27.3          17.3 GVEG028C40
         K23G00F 1C2023 04 03.81815 13 52 22.82 -10 59 52.5          17.5 GVEG028C40
         K23G00F 1C2023 04 03.82101 13 52 16.44 -10 58 52.5          17.4 GVEG028C40
         K23G00F 1C2023 04 03.82388 13 52 10.06 -10 57 52.0          17.2 GVEG028C40
         K23G00F 1C2023 04 03.83391 13 51 47.64 -10 54 20.6          17.6 GVEG028C40
         K23G00F 1C2023 04 03.83679 13 51 41.24 -10 53 18.9          17.5 GVEG028C40
         K23G00F 1C2023 04 03.83965 13 51 34.85 -10 52 19.0          17.4 GVEG028C40
    
    Observer details:
    703 Catalina Sky Survey.  Observer R. A. Kowalski.  Measurers E. J.
        Christensen, D. Fay, J. B. Fazekas, D. C. Fuls, A. R. Gibbs, A. D. Grauer,
        H. Groeller, J. K. Hogan, R. A. Kowalski, S. M. Larson, G. J. Leonard, D.
        Rankin, R. L. Seaman, A. Serrano, F. C. Shelly, K. W. Wierzchos.  0.68-m
        Schmidt + 10K CCD.
    734 Farpoint Observatory, Eskridge.  Observers D. Cromer, G. Hug, D. Goodin,
        R. Valentine.  Measurer D. Cromer.  0.70-m f/3.0 reflector + CCD.
    900 Moriyama.  Observer Y. Ikari.  0.26-mf/7.0 reflector + CCD.
    C40 Kuban State University Astrophysical Observatory.  Observers A. Ivanov, A.
        Barcov, V. Ivanov, V. Lysenko, N. Yakovenko, N. Ivanova, N. Gorbunov, G.
        Kurbatov, P. Shchukin, V. Roshchupko.  Measurer A. Ivanov.  0.51-m f/8
        reflector + CCD.
    E23 Arcadia.  Observer A. Hidas.  0.35-m f/1.9 reflector + CCD.
    I52 Steward Observatory, Mt. Lemmon Station.  Observer J. K. Hogan.  Measurers
        E. J. Christensen, D. Fay, J. B. Fazekas, D. C. Fuls, A. R. Gibbs, A. D.
        Grauer, H. Groeller, J. K. Hogan, R. A. Kowalski, S. M. Larson, G. J.
        Leonard, D. Rankin, R. L. Seaman, A. Serrano, F. C. Shelly, K. W.
        Wierzchos.  1.0-m prime focus + CCD.
    J22 Tacande Observatory, La Palma.  Observer K. Hills.  0.5-m f/3.6 astrograph
        + CCD.
    J95 Great Shefford.  Observer P. Birtwhistle.  0.41-m f/6.3 Schmidt-Cassegrain
        + CCD.
    
    Orbital elements:
    2023 GF                                                  Earth MOID = 0.0058 AU
    Epoch 2023 Feb. 25.0 TT = JDT 2460000.5                 Veres                   
    M  73.34770              (2000.0)            P               Q                  
    n   1.41143251     Peri.  206.87978     +0.76002005     -0.64965876             
    a   0.7870989      Node   193.68066     +0.60891638     +0.72134276             
    e   0.3861645      Incl.    4.28999     +0.22713512     +0.24001691             
    P   0.70           H   24.64          G   0.15           U   7                  
    Residuals in seconds of arc
    230402 703  0.1-  0.7+    230403 J22 (1.2-  0.5+)   230403 900  0.2-  0.1-
    230402 703  0.3+  0.1-    230403 J22 (2.1-  0.7-)   230403 900  0.2-  0.1+
    230402 703  0.0   0.2+    230403 734  0.1+  0.0     230403 C40  0.3-  0.3+
    230402 703  0.1-  0.1-    230403 734  0.2-  0.3+    230403 C40  0.3+  0.3+
    230402 I52  0.0   0.0     230403 734  0.0   0.1-    230403 C40  0.4-  0.3+
    230402 I52  0.0   0.0     230403 734  0.4+  0.3-    230403 C40  0.0   0.0
    230402 I52  0.1+  0.1-    230403 E23  0.1-  0.0     230403 C40  0.1+  0.4-
    230402 I52  0.0   0.0     230403 900  0.1-  0.3+    230403 C40  0.4+  0.4-
    230402 J95  0.2-  0.1+    230403 E23  0.0   0.4+    230403 C40  0.1-  0.5-
    230402 J95  0.1+  0.4-    230403 900  0.1+  0.0     230403 C40  0.2+  0.4+
    230402 J95  0.2-  0.2+    230403 E23  0.1+  0.4+    230403 C40  0.1+  0.1+
    230402 J95  0.2-  0.3-    230403 900  0.2+  0.5+
    230403 J22 (2.7-  0.6+)   230403 900  0.4-  0.1-
    
    Ephemeris:
    2023 GF                  a,e,i = 0.79, 0.39, 4                   q = 0.4831
    Date    TT    R. A. (2000) Decl.     Delta      r    Elong.  Phase     V
    2023 03 04    21 51 40.7 -25 50 02   0.1424  0.8639    24.6   151.5    28.8
    ...
    2023 03 19    21 02 28.4 -30 46 05   0.06898 0.9525    50.0   126.8    24.1
    ...
    2023 03 27    19 27 10.9 -35 08 23   0.03456 0.9909    77.9   100.1    20.9
    ...
    2023 04 02    15 10 27.1 -22 22 17   0.02121 1.0156   140.2    39.1    17.9
    2023 04 03    14 24 10.7 -15 59 08   0.02212 1.0194   153.7    25.8    17.6
    2023 04 04    13 45 50.0 -09 51 34   0.02400 1.0231   165.5    14.1    17.4
    ...
    2023 04 10    11 53 43.4 +09 40 27   0.04600 1.0431   153.9    25.0    19.2
    ...
    2023 04 18    11 13 00.4 +16 04 46   0.08357 1.0642   134.6    42.2    21.0
    ...
    2023 05 03    10 58 23.7 +18 08 25   0.1580  1.0871   116.3    56.2    22.9
    
    M. P. C. Staff               (C) Copyright 2023 MPC           M.P.E.C. 2023-G28
    


    Read MPEC 2023-G27 Read MPEC 2023-G29


    MPEC number:

    Enter an MPEC number in one of the following forms:

    • 1997-B01 (the full form)
    • J97B01 (the packed version of the full form)
    • B01 (the abbreviated form)